Miles City, MT

8:33 AM MDT on April 26, 2017 (GMT -0600)
Wiley

Weather History for KMLS - April, 2014

Change the Weather History Date:

Wednesday, April 16, 2014

  Actual Average Record
Temperature  
Mean Temperature 37 °F 46 °F  
Max Temperature 44 °F 59 °F 82 °F (1994)
Min Temperature 29 °F 33 °F 14 °F (1951)
Degree Days  
Heating Degree Days 28 19  
Month to date heating degree days 397 343  
Since 1 July heating degree days 7491 7018  
Cooling Degree Days 0 0  
Month to date cooling degree days 0 0  
Year to date cooling degree days 0 0  
Moisture  
Dew Point 24 °F    
Average Humidity 60    
Maximum Humidity 75    
Minimum Humidity 45    
Precipitation  
Precipitation T in 0.05 in 0.62 in (1967)
Month to date precipitation 0.09 0.61  
Year to date precipitation 1.65 1.76  
Sea Level Pressure  
Sea Level Pressure 30.03 in    
Wind  
Wind Speed 10 mph (NNE)    
Max Wind Speed 17 mph    
Max Gust Speed 23 mph    
Visibility 10 miles    
Events Snow    
T = Trace of Precipitation, MM = Missing Value Source: NWS Daily Summary

Daily Weather History Graph

Daily Weather History Graph

Search for Another Location

Airport or City:

Trip Planner

Search our weather history database for the weather conditions in past years. The results will help you decide how hot, cold, wet, or windy it might be!

Date:

Astronomy

Apr. 16, 2014 Rise Set
Actual Time 6:14 AM MDT 7:52 PM MDT
Civil Twilight 5:43 AM MDT 8:24 PM MDT
Nautical Twilight 5:04 AM MDT 9:03 PM MDT
Astronomical Twilight 4:22 AM MDT 9:45 PM MDT
Moon 9:44 PM MDT (4/16) 7:00 AM MDT (4/16)
Length of Visible Light 14h 41m
Length of Day
13h 38m
Full, 98% of the Moon is Illuminated
Apr 16
Full
Apr 22
Last Quarter
Apr 29
New
May 6
First Quarter
May 14
Full

Hourly Weather History & Observations

Time (MDT) Temp. Windchill Dew Point Humidity Pressure Visibility Wind Dir Wind Speed Gust Speed Precip Events Conditions
12:53 AM 42.1 °F 37.7 °F 26.1 °F 53% 29.67 in 10.0 mi NE 6.9 mph - N/A   Clear
1:53 AM 39.9 °F 31.4 °F 26.1 °F 58% 29.73 in 10.0 mi NW 16.1 mph - N/A   Mostly Cloudy
2:53 AM 39.0 °F 32.3 °F 25.0 °F 57% 29.75 in 10.0 mi NNW 10.4 mph - N/A   Partly Cloudy
3:53 AM 37.0 °F 31.0 °F 25.0 °F 62% 29.80 in 10.0 mi NNW 8.1 mph - N/A   Clear
4:53 AM 33.1 °F 23.9 °F 23.0 °F 66% 29.86 in 10.0 mi NW 12.7 mph - N/A   Clear
5:53 AM 30.9 °F 21.2 °F 23.0 °F 72% 29.90 in 10.0 mi NW 12.7 mph - N/A   Clear
6:53 AM 28.9 °F 18.6 °F 21.0 °F 72% 29.96 in 10.0 mi NNW 12.7 mph - N/A   Clear
7:53 AM 30.9 °F 21.2 °F 21.0 °F 67% 30.00 in 10.0 mi North 12.7 mph - N/A   Clear
8:53 AM 33.1 °F 26.9 °F 21.0 °F 61% 30.03 in 10.0 mi North 6.9 mph - N/A   Clear
9:53 AM 35.1 °F 28.6 °F 21.0 °F 57% 30.04 in 10.0 mi NNE 8.1 mph - N/A   Mostly Cloudy
10:53 AM 39.9 °F 32.9 °F 21.9 °F 49% 30.06 in 10.0 mi NNE 11.5 mph - N/A   Mostly Cloudy
11:53 AM 37.0 °F 33.3 °F 21.0 °F 52% 30.09 in 10.0 mi NE 4.6 mph - N/A   Overcast
12:53 PM 37.9 °F 31.5 °F 24.1 °F 57% 30.10 in 10.0 mi North 9.2 mph - 0.00 in   Overcast
1:27 PM 36.0 °F - 28.0 °F 73% 30.06 in 3.0 mi North - - 0.00 in Snow Light Snow
1:53 PM 36.0 °F 30.3 °F 26.1 °F 67% 30.12 in 10.0 mi NNE 6.9 mph - 0.00 in   Overcast
2:53 PM 37.9 °F 32.7 °F 25.0 °F 60% 30.12 in 10.0 mi NE 6.9 mph - N/A   Overcast
3:53 PM 41.0 °F 35.8 °F 24.1 °F 51% 30.12 in 10.0 mi ENE 8.1 mph - N/A   Overcast
4:53 PM 41.0 °F 38.0 °F 23.0 °F 49% 30.13 in 10.0 mi Variable 4.6 mph - N/A   Overcast
5:53 PM 42.1 °F 37.7 °F 23.0 °F 47% 30.13 in 10.0 mi East 6.9 mph - N/A   Overcast
6:53 PM 39.0 °F 31.0 °F 24.1 °F 55% 30.15 in 10.0 mi NE 13.8 mph - N/A   Clear
7:53 PM 36.0 °F 28.0 °F 24.1 °F 62% 30.17 in 10.0 mi NE 11.5 mph - N/A   Clear
8:53 PM 35.1 °F 26.4 °F 24.1 °F 64% 30.19 in 10.0 mi NE 12.7 mph - N/A   Scattered Clouds
9:53 PM 34.0 °F 26.0 °F 24.1 °F 67% 30.20 in 10.0 mi NE 10.4 mph - N/A   Overcast
10:53 PM 34.0 °F 26.6 °F 24.1 °F 67% 30.19 in 10.0 mi ENE 9.2 mph - N/A   Overcast
11:53 PM 33.1 °F 24.4 °F 25.0 °F 72% 30.19 in 10.0 mi ENE 11.5 mph - N/A   Overcast